Zurück zum Katalog

ORBCOMM FM 2

AktivKommunikationVLEO
NORAD 23546·PAYLOAD·🇺🇸 United States

Gestartet Apr 3, 1995 von Vandenberg Space Force Base

Loading…

Nächste Überflüge (nächste 24 Stunden)

TLE

AktuellSource: Space-Track

Epoche: Sep 14, 2026, 15:25 UTC

1 23546U 95017B   26257.64236795  .00007388  00000-0  60714-3 0  9993
2 23546  69.9630  30.6717 0005752 323.8686  36.2084 14.99526114680104

Verfolge ORBCOMM FM 2 in Echtzeit mit AllMySat

Download on the App Store